Marion, OH

4:57 AM EDT on September 22, 2017 (GMT -0400)
Marion Municipal

Weather History for KMNN - June, 2013

Change the Weather History Date:

Sunday, June 16, 2013

  Actual Average (KDLZ) Record (KDLZ)
Temperature  
Mean Temperature 72 °F -  
Max Temperature 79 °F 81 °F 94 °F (1967)
Min Temperature 66 °F 58 °F 40 °F (1961)
Cooling Degree Days 7    
Growing Degree Days 22 (Base 50)    
Moisture  
Dew Point 64 °F    
Average Humidity 77    
Maximum Humidity 90    
Minimum Humidity 62    
Precipitation  
Precipitation 0.05 in - - ()
Sea Level Pressure  
Sea Level Pressure 29.93 in    
Wind  
Wind Speed 11 mph (SW)    
Max Wind Speed 22 mph    
Max Gust Speed 33 mph    
Visibility 10 miles    
Events Rain    
Averages and records for this station are not official NWS values.
T = Trace of Precipitation, MM = Missing Value Source: NWS Daily Summary

Daily Weather History Graph

Daily Weather History Graph

Search for Another Location

Airport or City:

Trip Planner

Search our weather history database for the weather conditions in past years. The results will help you decide how hot, cold, wet, or windy it might be!

Date:

Astronomy

Jun. 16, 2013 Rise Set
Actual Time 6:00 AM EDT 9:05 PM EDT
Civil Twilight 5:27 AM EDT 9:38 PM EDT
Nautical Twilight 4:45 AM EDT 10:21 PM EDT
Astronomical Twilight 3:55 AM EDT 11:11 PM EDT
Moon 1:37 PM EDT (6/16) 1:07 AM EDT (6/16)
Length of Visible Light 16h 11m
Length of Day
15h 04m
Waxing Crescent, 49% of the Moon is Illuminated
Jun 16
Waxing Crescent
Jun 16
First Quarter
Jun 23
Full
Jun 30
Last Quarter
Jul 8
New

Hourly Weather History & Observations

Time (EDT) Temp. Dew Point Humidity Pressure Visibility Wind Dir Wind Speed Gust Speed Precip Events Conditions
12:53 AM 66.9 °F 62.1 °F 84% 29.96 in 10.0 mi SSE 9.2 mph - 0.00 in   Overcast
1:53 AM 66.0 °F 60.1 °F 81% 29.95 in 10.0 mi South 8.1 mph - N/A   Partly Cloudy
2:53 AM 66.0 °F 61.0 °F 84% 29.93 in 10.0 mi South 8.1 mph - N/A   Partly Cloudy
3:53 AM 66.9 °F 62.1 °F 84% 29.91 in 10.0 mi SSW 10.4 mph - N/A   Scattered Clouds
4:53 AM 66.9 °F 62.1 °F 84% 29.92 in 6.0 mi SW 12.7 mph - 0.01 in Rain Light Rain
5:53 AM 68.0 °F 63.0 °F 84% 29.95 in 9.0 mi NW 21.9 mph 33.4 mph 0.01 in Rain Light Rain
6:53 AM 66.0 °F 63.0 °F 90% 29.94 in 10.0 mi West 5.8 mph - 0.00 in Rain Light Rain
7:53 AM 66.9 °F 63.0 °F 87% 29.92 in 10.0 mi SW 8.1 mph - 0.00 in   Mostly Cloudy
8:18 AM 68.0 °F 62.6 °F 83% 29.93 in 9.0 mi SW 12.7 mph 21.9 mph N/A   Scattered Clouds
8:53 AM 68.0 °F 63.0 °F 84% 29.93 in 10.0 mi SW 15.0 mph 21.9 mph N/A   Overcast
9:53 AM 69.1 °F 63.0 °F 81% 29.94 in 10.0 mi West 17.3 mph 25.3 mph 0.00 in Rain Light Rain
10:53 AM 70.0 °F 63.0 °F 78% 29.93 in 10.0 mi WSW 17.3 mph 24.2 mph 0.00 in   Mostly Cloudy
11:07 AM 69.8 °F 62.6 °F 78% 29.94 in 10.0 mi WSW 12.7 mph 24.2 mph N/A   Partly Cloudy
11:53 AM 71.1 °F 63.0 °F 75% 29.94 in 10.0 mi West 13.8 mph 23.0 mph 0.00 in Rain Light Rain
12:53 PM 75.0 °F 64.0 °F 69% 29.94 in 10.0 mi WSW 13.8 mph 23.0 mph 0.00 in   Mostly Cloudy
1:21 PM 73.4 °F 64.4 °F 73% 29.95 in 10.0 mi WSW 15.0 mph - N/A   Mostly Cloudy
1:53 PM 75.0 °F 64.0 °F 69% 29.93 in 10.0 mi WSW 15.0 mph 23.0 mph N/A   Mostly Cloudy
2:11 PM 75.2 °F 64.4 °F 69% 29.95 in 10.0 mi West 12.7 mph 25.3 mph N/A   Overcast
2:21 PM 75.2 °F 64.4 °F 69% 29.95 in 10.0 mi West 11.5 mph 19.6 mph N/A   Overcast
2:35 PM 73.4 °F 64.4 °F 73% 29.95 in 10.0 mi WSW 12.7 mph 21.9 mph N/A   Overcast
2:53 PM 75.0 °F 64.9 °F 71% 29.94 in 10.0 mi WSW 16.1 mph 20.7 mph N/A   Overcast
3:53 PM 78.1 °F 64.0 °F 62% 29.92 in 10.0 mi WSW 17.3 mph 24.2 mph N/A   Mostly Cloudy
4:53 PM 78.1 °F 64.0 °F 62% 29.92 in 10.0 mi WSW 12.7 mph 20.7 mph N/A   Mostly Cloudy
5:53 PM 75.9 °F 64.9 °F 69% 29.92 in 10.0 mi SW 12.7 mph 20.7 mph N/A   Mostly Cloudy
6:53 PM 75.9 °F 64.9 °F 69% 29.91 in 10.0 mi WSW 10.4 mph - 0.00 in   Scattered Clouds
7:53 PM 75.9 °F 64.9 °F 69% 29.92 in 10.0 mi WSW 9.2 mph - N/A   Partly Cloudy
8:53 PM 73.0 °F 64.9 °F 76% 29.92 in 10.0 mi SW 6.9 mph - N/A   Scattered Clouds
9:53 PM 72.0 °F 66.0 °F 81% 29.94 in 10.0 mi SW 3.5 mph - 0.03 in   Mostly Cloudy
10:53 PM 70.0 °F 66.0 °F 87% 29.94 in 10.0 mi SSW 5.8 mph - N/A   Scattered Clouds
11:53 PM 69.1 °F 66.0 °F 90% 29.94 in 10.0 mi SW 5.8 mph - N/A   Mostly Cloudy